When you browse on this site, cookies collect data to enhance your experience and personalize the content and advertising you see.
Visit our Privacy Policy to learn more. By continuing to use the site, you agree to this use of cookies and data.
  • In Netherlands
  • List of Countries
  • For 7 days
  • Water Temperature
  • Weather Map
  • Weather Widgets
  • user-avatar
    Login

    Hourly Weather Ondjiwa

    Today, 20 February, Thursday

    Time Temperature Precipitation Wind Pressure Humidity
    00:00 +26°C° 0 mm 3 mps 666 mmHg 41%
    01:00 +25°C° 0 mm 3 mps 667 mmHg 38%
    02:00 +24°C° 0 mm 3 mps 666 mmHg 43%
    03:00 +24°C° 0 mm 3 mps 666 mmHg 48%
    04:00 +23°C° 0 mm 2 mps 666 mmHg 53%
    05:00 +23°C° 0 mm 2 mps 666 mmHg 54%
    06:00 +23°C° 0 mm 2 mps 667 mmHg 55%
    07:00 +23°C° 0 mm 1 mps 667 mmHg 67%
    08:00 +23°C° 0.4 mm 1 mps 667 mmHg 70%
    09:00 +23°C° 0.4 mm 1 mps 667 mmHg 73%
    10:00 +23°C° 0.4 mm 2 mps 667 mmHg 76%
    11:00 +24°C° 0 mm 1 mps 667 mmHg 70%
    12:00 +25°C° 0 mm 1 mps 666 mmHg 64%
    13:00 +26°C° 0 mm 1 mps 666 mmHg 59%
    14:00 +27°C° 0 mm 1 mps 666 mmHg 56%
    15:00 +28°C° 0 mm 1 mps 665 mmHg 52%
    16:00 +29°C° 0 mm 1 mps 665 mmHg 49%
    17:00 +28°C° 0 mm 1 mps 665 mmHg 53%
    18:00 +26°C° 0 mm 1 mps 665 mmHg 58%
    19:00 +25°C° 0 mm 1 mps 665 mmHg 62%
    20:00 +25°C° 0 mm 1 mps 665 mmHg 62%
    21:00 +25°C° 0 mm 1 mps 666 mmHg 63%
    22:00 +25°C° 0 mm 1 mps 666 mmHg 63%
    23:00 +25°C° 0 mm 1 mps 666 mmHg 63%

    Tomorrow, 21 February, Friday

    Time Temperature Precipitation Wind Pressure Humidity
    00:00 +23°C° 0 mm 0 mps 666 mmHg 62%
    01:00 +23°C° 0 mm 0 mps 666 mmHg 62%
    02:00 +22°C° 0 mm 0 mps 666 mmHg 62%
    03:00 +24°C° 0 mm 1 mps 665 mmHg 63%
    04:00 +24°C° 0 mm 1 mps 665 mmHg 64%
    05:00 +24°C° 0 mm 1 mps 666 mmHg 62%
    06:00 +24°C° 0 mm 1 mps 666 mmHg 61%
    07:00 +23°C° 0 mm 1 mps 667 mmHg 60%
    14:00 +35°C° 0 mm 2 mps 667 mmHg 26%
    15:00 +35°C° 0 mm 3 mps 666 mmHg 27%
    16:00 +35°C° 0 mm 3 mps 665 mmHg 27%
    17:00 +33°C° 0 mm 3 mps 665 mmHg 31%
    18:00 +30°C° 0 mm 2 mps 665 mmHg 35%
    19:00 +28°C° 0 mm 1 mps 664 mmHg 39%
    20:00 +28°C° 0 mm 1 mps 665 mmHg 40%
    21:00 +27°C° 0 mm 1 mps 666 mmHg 42%
    22:00 +27°C° 0 mm 1 mps 666 mmHg 43%
    23:00 +26°C° 0 mm 1 mps 666 mmHg 46%

    Day after tomorrow, 22 February, Saturday

    Time Temperature Precipitation Wind Pressure Humidity
    00:00 +26°C° 0 mm 1 mps 666 mmHg 49%
    01:00 +25°C° 0 mm 1 mps 666 mmHg 52%
    02:00 +25°C° 0 mm 1 mps 665 mmHg 59%
    03:00 +24°C° 0 mm 1 mps 665 mmHg 66%
    04:00 +23°C° 0 mm 1 mps 665 mmHg 73%
    05:00 +23°C° 0 mm 1 mps 665 mmHg 72%
    06:00 +24°C° 0 mm 1 mps 666 mmHg 72%
    07:00 +24°C° 0 mm 1 mps 667 mmHg 71%
    08:00 +27°C° 0 mm 1 mps 667 mmHg 63%
    09:00 +29°C° 0 mm 2 mps 667 mmHg 55%
    10:00 +31°C° 0 mm 2 mps 668 mmHg 47%
    11:00 +32°C° 0 mm 2 mps 667 mmHg 42%
    12:00 +34°C° 0 mm 1 mps 667 mmHg 38%
    13:00 +35°C° 0 mm 1 mps 667 mmHg 33%
    14:00 +35°C° 0 mm 1 mps 666 mmHg 35%
    15:00 +34°C° 0 mm 1 mps 665 mmHg 37%
    16:00 +34°C° 0 mm 1 mps 664 mmHg 38%
    17:00 +32°C° 0 mm 2 mps 664 mmHg 43%
    18:00 +31°C° 0 mm 2 mps 664 mmHg 48%
    19:00 +30°C° 0 mm 2 mps 664 mmHg 53%
    20:00 +28°C° 0.9 mm 2 mps 665 mmHg 60%
    21:00 +27°C° 0.9 mm 3 mps 665 mmHg 67%
    22:00 +26°C° 0.9 mm 3 mps 665 mmHg 74%
    23:00 +25°C° 0.3 mm 3 mps 665 mmHg 74%

    23 February, Sunday

    Time Temperature Precipitation Wind Pressure Humidity
    00:00 +25°C° 0.3 mm 2 mps 665 mmHg 74%
    01:00 +25°C° 0.3 mm 2 mps 665 mmHg 75%
    02:00 +25°C° 0.1 mm 1 mps 665 mmHg 76%
    03:00 +24°C° 0.1 mm 1 mps 665 mmHg 78%
    04:00 +24°C° 0.1 mm 1 mps 665 mmHg 80%
    05:00 +24°C° 0.3 mm 1 mps 665 mmHg 79%
    06:00 +24°C° 0.3 mm 2 mps 665 mmHg 78%
    07:00 +24°C° 0.3 mm 2 mps 666 mmHg 78%
    08:00 +25°C° 0.6 mm 2 mps 666 mmHg 74%
    09:00 +26°C° 0.6 mm 2 mps 666 mmHg 70%
    10:00 +28°C° 0.6 mm 2 mps 667 mmHg 66%
    11:00 +29°C° 0.2 mm 2 mps 666 mmHg 60%
    12:00 +31°C° 0.2 mm 2 mps 666 mmHg 53%
    13:00 +32°C° 0.2 mm 2 mps 666 mmHg 47%
    14:00 +31°C° 0.4 mm 2 mps 665 mmHg 50%
    15:00 +30°C° 0.4 mm 3 mps 664 mmHg 53%
    16:00 +29°C° 0.4 mm 3 mps 664 mmHg 56%
    17:00 +28°C° 0.3 mm 3 mps 664 mmHg 63%
    18:00 +27°C° 0.3 mm 3 mps 664 mmHg 69%
    19:00 +25°C° 0.3 mm 3 mps 664 mmHg 75%
    20:00 +25°C° 0 mm 3 mps 665 mmHg 75%
    21:00 +25°C° 0 mm 3 mps 665 mmHg 76%
    22:00 +25°C° 0 mm 3 mps 666 mmHg 76%
    23:00 +24°C° 0 mm 3 mps 665 mmHg 70%

    24 February, Monday

    Time Temperature Precipitation Wind Pressure Humidity
    00:00 +24°C° 0 mm 3 mps 665 mmHg 63%
    01:00 +22°C° 0 mm 3 mps 665 mmHg 57%
    02:00 +22°C° 0 mm 3 mps 665 mmHg 57%
    03:00 +21°C° 0 mm 3 mps 665 mmHg 57%
    04:00 +20°C° 0 mm 3 mps 665 mmHg 56%
    05:00 +20°C° 0 mm 3 mps 665 mmHg 56%
    06:00 +21°C° 0 mm 3 mps 665 mmHg 56%
    07:00 +21°C° 0 mm 3 mps 666 mmHg 55%
    08:00 +24°C° 0 mm 3 mps 666 mmHg 51%
    09:00 +27°C° 0 mm 3 mps 667 mmHg 46%
    10:00 +29°C° 0 mm 3 mps 667 mmHg 41%
    11:00 +31°C° 0 mm 3 mps 667 mmHg 38%
    12:00 +33°C° 0 mm 3 mps 667 mmHg 35%
    13:00 +34°C° 0 mm 3 mps 666 mmHg 32%
    14:00 +35°C° 0 mm 3 mps 666 mmHg 31%
    15:00 +35°C° 0 mm 3 mps 665 mmHg 29%
    16:00 +36°C° 0 mm 3 mps 664 mmHg 27%
    17:00 +34°C° 0 mm 2 mps 664 mmHg 31%
    18:00 +31°C° 0 mm 2 mps 664 mmHg 34%
    19:00 +29°C° 0 mm 1 mps 664 mmHg 38%
    20:00 +28°C° 0 mm 2 mps 665 mmHg 40%
    21:00 +27°C° 0 mm 3 mps 666 mmHg 41%
    22:00 +26°C° 0 mm 4 mps 666 mmHg 43%
    23:00 +25°C° 0 mm 4 mps 666 mmHg 44%

    25 February, Tuesday

    Time Temperature Precipitation Wind Pressure Humidity
    00:00 +23°C° 0 mm 4 mps 666 mmHg 46%
    01:00 +22°C° 0 mm 4 mps 666 mmHg 48%
    02:00 +22°C° 0 mm 3 mps 665 mmHg 52%
    03:00 +21°C° 0 mm 2 mps 665 mmHg 55%
    04:00 +20°C° 0 mm 2 mps 665 mmHg 58%
    05:00 +22°C° 0 mm 1 mps 665 mmHg 59%
    06:00 +22°C° 0 mm 1 mps 665 mmHg 59%
    07:00 +22°C° 0 mm 1 mps 666 mmHg 60%
    08:00 +25°C° 0 mm 1 mps 666 mmHg 52%
    09:00 +27°C° 0 mm 1 mps 667 mmHg 45%
    10:00 +30°C° 0 mm 2 mps 667 mmHg 38%
    11:00 +31°C° 0 mm 2 mps 667 mmHg 34%
    12:00 +32°C° 0 mm 2 mps 666 mmHg 31%
    13:00 +35°C° 0 mm 2 mps 666 mmHg 27%
    14:00 +35°C° 0 mm 3 mps 665 mmHg 25%
    15:00 +35°C° 0 mm 3 mps 665 mmHg 22%
    16:00 +36°C° 0 mm 3 mps 664 mmHg 19%
    17:00 +33°C° 0 mm 3 mps 664 mmHg 22%
    18:00 +30°C° 0 mm 2 mps 664 mmHg 25%
    19:00 +27°C° 0 mm 2 mps 663 mmHg 28%
    20:00 +26°C° 0 mm 2 mps 664 mmHg 32%
    21:00 +25°C° 0 mm 3 mps 664 mmHg 35%
    22:00 +24°C° 0 mm 3 mps 665 mmHg 39%
    23:00 +22°C° 0 mm 3 mps 665 mmHg 41%
    Show more